Time,TemperatureF,DewpointF,PressureIn,WindDirection,WindDirectionDegrees,WindSpeedMPH,WindSpeedGustMPH,Humidity,HourlyPrecipIn,Conditions,Clouds,dailyrainin,SoftwareType,DateUTC
2013-08-10 00:04:00,57.0,53.0,30.04,North,0,0.0,0.0,85,0.00,,,0.00,Meteo,2013-08-10 05:04:00,
2013-08-10 00:09:00,57.0,53.0,30.04,WSW,239,1.0,3.0,85,0.00,,,0.00,Meteo,2013-08-10 05:09:00,
2013-08-10 00:14:00,57.0,53.0,30.04,SW,233,0.0,1.0,85,0.00,,,0.00,Meteo,2013-08-10 05:14:00,
2013-08-10 00:19:00,57.0,53.0,30.04,North,0,0.0,0.0,85,0.00,,,0.00,Meteo,2013-08-10 05:19:00,
2013-08-10 00:24:00,57.0,53.0,30.04,SW,217,0.0,1.0,85,0.00,,,0.00,Meteo,2013-08-10 05:24:00,
2013-08-10 00:29:00,57.0,52.0,30.04,North,0,0.0,0.0,84,0.00,,,0.00,Meteo,2013-08-10 05:29:00,
2013-08-10 00:34:00,57.0,52.0,30.05,North,0,0.0,0.0,84,0.00,,,0.00,Meteo,2013-08-10 05:34:00,
2013-08-10 00:39:00,57.0,52.0,30.05,North,0,0.0,0.0,84,0.00,,,0.00,Meteo,2013-08-10 05:39:00,
2013-08-10 00:44:00,57.0,52.0,30.05,SW,218,0.0,1.0,84,0.00,,,0.00,Meteo,2013-08-10 05:44:00,
2013-08-10 00:49:00,57.0,52.0,30.04,North,0,0.0,0.0,84,0.00,,,0.00,Meteo,2013-08-10 05:49:00,
2013-08-10 00:54:00,58.0,53.0,30.04,North,0,0.0,0.0,83,0.00,,,0.00,Meteo,2013-08-10 05:54:00,
2013-08-10 00:59:00,58.0,53.0,30.04,North,0,0.0,0.0,84,0.00,,,0.00,Meteo,2013-08-10 05:59:00,
2013-08-10 01:04:00,57.0,52.0,30.05,North,0,0.0,0.0,84,0.00,,,0.00,Meteo,2013-08-10 06:04:00,
2013-08-10 01:09:00,57.0,52.0,30.05,SW,216,0.0,1.0,84,0.00,,,0.00,Meteo,2013-08-10 06:09:00,
2013-08-10 01:14:00,57.0,53.0,30.05,North,0,0.0,0.0,85,0.00,,,0.00,Meteo,2013-08-10 06:14:00,
2013-08-10 01:19:00,57.0,52.0,30.05,North,0,0.0,0.0,84,0.00,,,0.00,Meteo,2013-08-10 06:19:00,
2013-08-10 01:24:00,57.0,53.0,30.05,North,0,0.0,0.0,85,0.00,,,0.00,Meteo,2013-08-10 06:24:00,
2013-08-10 01:29:00,57.0,53.0,30.05,SW,216,0.0,1.0,85,0.00,,,0.00,Meteo,2013-08-10 06:29:00,
2013-08-10 01:34:00,57.0,53.0,30.05,SW,216,0.0,1.0,85,0.00,,,0.00,Meteo,2013-08-10 06:34:00,
2013-08-10 01:39:00,57.0,52.0,30.05,North,0,0.0,0.0,84,0.00,,,0.00,Meteo,2013-08-10 06:39:00,
2013-08-10 01:44:00,57.0,53.0,30.05,North,0,0.0,0.0,85,0.00,,,0.00,Meteo,2013-08-10 06:44:00,
2013-08-10 01:49:00,57.0,52.0,30.05,North,0,0.0,0.0,84,0.00,,,0.00,Meteo,2013-08-10 06:49:00,
2013-08-10 01:54:00,57.0,53.0,30.05,North,0,0.0,0.0,85,0.00,,,0.00,Meteo,2013-08-10 06:54:00,
2013-08-10 01:59:00,57.0,53.0,30.05,North,0,0.0,0.0,85,0.00,,,0.00,Meteo,2013-08-10 06:59:00,
2013-08-10 02:04:00,57.0,53.0,30.05,North,0,0.0,0.0,85,0.00,,,0.00,Meteo,2013-08-10 07:04:00,
2013-08-10 02:09:00,57.0,53.0,30.04,North,0,0.0,0.0,85,0.00,,,0.00,Meteo,2013-08-10 07:09:00,
2013-08-10 02:14:00,57.0,53.0,30.05,North,0,0.0,0.0,86,0.00,,,0.00,Meteo,2013-08-10 07:14:00,
2013-08-10 02:19:00,57.0,53.0,30.05,WSW,239,1.0,2.0,86,0.00,,,0.00,Meteo,2013-08-10 07:19:00,
2013-08-10 02:25:00,57.0,53.0,30.05,North,0,0.0,0.0,86,0.00,,,0.00,Meteo,2013-08-10 07:25:00,
2013-08-10 02:30:00,57.0,53.0,30.05,North,0,0.0,0.0,86,0.00,,,0.00,Meteo,2013-08-10 07:30:00,
2013-08-10 02:35:00,56.0,52.0,30.05,North,0,0.0,0.0,86,0.00,,,0.00,Meteo,2013-08-10 07:35:00,
2013-08-10 02:40:00,56.0,52.0,30.05,North,0,0.0,0.0,87,0.00,,,0.00,Meteo,2013-08-10 07:40:00,
2013-08-10 02:45:00,56.0,52.0,30.05,WSW,251,0.0,1.0,87,0.00,,,0.00,Meteo,2013-08-10 07:45:00,
2013-08-10 02:50:00,56.0,53.0,30.05,North,0,0.0,0.0,88,0.00,,,0.00,Meteo,2013-08-10 07:50:00,
2013-08-10 02:55:00,56.0,53.0,30.05,WSW,251,0.0,1.0,89,0.00,,,0.00,Meteo,2013-08-10 07:55:00,
2013-08-10 03:00:00,56.0,53.0,30.05,North,0,0.0,0.0,88,0.00,,,0.00,Meteo,2013-08-10 08:00:00,
2013-08-10 03:05:00,56.0,53.0,30.05,North,0,0.0,0.0,88,0.00,,,0.00,Meteo,2013-08-10 08:05:00,
2013-08-10 03:10:00,56.0,53.0,30.06,North,0,0.0,0.0,88,0.00,,,0.00,Meteo,2013-08-10 08:10:00,
2013-08-10 03:15:00,56.0,53.0,30.06,North,0,0.0,0.0,88,0.00,,,0.00,Meteo,2013-08-10 08:15:00,
2013-08-10 03:20:00,56.0,52.0,30.06,North,0,0.0,0.0,87,0.00,,,0.00,Meteo,2013-08-10 08:20:00,
2013-08-10 03:25:00,55.0,52.0,30.06,North,0,0.0,0.0,88,0.00,,,0.00,Meteo,2013-08-10 08:25:00,
2013-08-10 03:30:00,55.0,52.0,30.06,North,0,0.0,0.0,88,0.00,,,0.00,Meteo,2013-08-10 08:30:00,
2013-08-10 03:35:00,55.0,52.0,30.06,North,0,0.0,0.0,89,0.00,,,0.00,Meteo,2013-08-10 08:35:00,
2013-08-10 03:40:00,55.0,52.0,30.06,North,0,0.0,0.0,89,0.00,,,0.00,Meteo,2013-08-10 08:40:00,
2013-08-10 03:45:00,55.0,52.0,30.06,North,0,0.0,0.0,90,0.00,,,0.00,Meteo,2013-08-10 08:45:00,
2013-08-10 03:50:00,55.0,52.0,30.07,North,0,0.0,0.0,90,0.00,,,0.00,Meteo,2013-08-10 08:50:00,
2013-08-10 03:55:00,55.0,52.0,30.07,North,0,0.0,0.0,91,0.00,,,0.00,Meteo,2013-08-10 08:55:00,
2013-08-10 04:00:00,55.0,52.0,30.07,North,0,0.0,0.0,91,0.00,,,0.00,Meteo,2013-08-10 09:00:00,
2013-08-10 04:06:00,55.0,52.0,30.07,North,0,0.0,0.0,91,0.00,,,0.00,Meteo,2013-08-10 09:06:00,
2013-08-10 04:11:00,55.0,53.0,30.07,North,0,0.0,0.0,92,0.00,,,0.00,Meteo,2013-08-10 09:11:00,
2013-08-10 04:16:00,55.0,53.0,30.07,North,0,0.0,0.0,92,0.00,,,0.00,Meteo,2013-08-10 09:16:00,
2013-08-10 04:21:00,55.0,53.0,30.08,North,0,0.0,0.0,92,0.00,,,0.00,Meteo,2013-08-10 09:21:00,
2013-08-10 04:26:00,55.0,53.0,30.08,North,0,0.0,0.0,92,0.00,,,0.00,Meteo,2013-08-10 09:26:00,
2013-08-10 04:31:00,55.0,53.0,30.08,North,0,0.0,0.0,92,0.00,,,0.00,Meteo,2013-08-10 09:31:00,
2013-08-10 04:36:00,55.0,53.0,30.08,North,0,0.0,0.0,92,0.00,,,0.00,Meteo,2013-08-10 09:36:00,
2013-08-10 04:41:00,56.0,54.0,30.08,North,0,0.0,0.0,92,0.00,,,0.00,Meteo,2013-08-10 09:41:00,
2013-08-10 04:47:00,56.0,54.0,30.08,North,0,0.0,0.0,92,0.00,,,0.00,Meteo,2013-08-10 09:47:00,
2013-08-10 04:52:00,56.0,54.0,30.08,North,0,0.0,0.0,92,0.00,,,0.00,Meteo,2013-08-10 09:52:00,
2013-08-10 04:57:00,56.0,54.0,30.08,North,0,0.0,0.0,92,0.00,,,0.00,Meteo,2013-08-10 09:57:00,
2013-08-10 05:02:00,56.0,54.0,30.08,North,0,0.0,0.0,92,0.00,,,0.00,Meteo,2013-08-10 10:02:00,
2013-08-10 05:07:00,56.0,54.0,30.08,North,0,0.0,0.0,92,0.00,,,0.00,Meteo,2013-08-10 10:07:00,
2013-08-10 05:12:00,56.0,54.0,30.08,North,0,0.0,0.0,92,0.00,,,0.00,Meteo,2013-08-10 10:12:00,
2013-08-10 05:17:00,56.0,54.0,30.08,North,0,0.0,0.0,92,0.00,,,0.00,Meteo,2013-08-10 10:17:00,
2013-08-10 05:22:00,56.0,53.0,30.08,North,0,0.0,0.0,91,0.00,,,0.00,Meteo,2013-08-10 10:22:00,
2013-08-10 05:27:00,56.0,53.0,30.08,North,0,0.0,0.0,91,0.00,,,0.00,Meteo,2013-08-10 10:27:00,
2013-08-10 05:32:00,56.0,54.0,30.08,North,0,0.0,0.0,92,0.00,,,0.00,Meteo,2013-08-10 10:32:00,
2013-08-10 05:37:00,57.0,54.0,30.08,North,0,0.0,0.0,91,0.00,,,0.00,Meteo,2013-08-10 10:37:00,
2013-08-10 05:42:00,57.0,54.0,30.09,North,0,0.0,0.0,91,0.00,,,0.00,Meteo,2013-08-10 10:42:00,
2013-08-10 05:47:00,57.0,55.0,30.08,North,0,0.0,0.0,92,0.00,,,0.00,Meteo,2013-08-10 10:47:00,
2013-08-10 05:52:00,57.0,54.0,30.08,North,0,0.0,0.0,91,0.00,,,0.00,Meteo,2013-08-10 10:52:00,
2013-08-10 05:57:00,57.0,54.0,30.09,North,0,0.0,0.0,91,0.00,,,0.00,Meteo,2013-08-10 10:57:00,
2013-08-10 06:02:00,57.0,54.0,30.09,North,0,0.0,0.0,91,0.00,,,0.00,Meteo,2013-08-10 11:02:00,
2013-08-10 06:07:00,57.0,54.0,30.09,North,0,0.0,0.0,91,0.00,,,0.00,Meteo,2013-08-10 11:07:00,
2013-08-10 06:12:00,57.0,54.0,30.09,North,0,0.0,0.0,91,0.00,,,0.00,Meteo,2013-08-10 11:12:00,
2013-08-10 06:18:00,57.0,54.0,30.09,North,0,0.0,0.0,91,0.00,,,0.00,Meteo,2013-08-10 11:18:00,
2013-08-10 06:23:00,57.0,54.0,30.09,North,0,0.0,0.0,91,0.00,,,0.00,Meteo,2013-08-10 11:23:00,
2013-08-10 06:28:00,58.0,55.0,30.09,North,0,0.0,0.0,90,0.00,,,0.00,Meteo,2013-08-10 11:28:00,
2013-08-10 06:33:00,58.0,55.0,30.09,North,0,0.0,0.0,90,0.00,,,0.00,Meteo,2013-08-10 11:33:00,
2013-08-10 06:38:00,58.0,55.0,30.09,North,0,0.0,0.0,90,0.00,,,0.00,Meteo,2013-08-10 11:38:00,
2013-08-10 06:43:00,58.0,55.0,30.09,North,0,0.0,0.0,89,0.00,,,0.00,Meteo,2013-08-10 11:43:00,
2013-08-10 06:48:00,58.0,55.0,30.09,North,0,0.0,0.0,90,0.00,,,0.00,Meteo,2013-08-10 11:48:00,
2013-08-10 06:53:00,58.0,55.0,30.09,North,0,0.0,0.0,89,0.00,,,0.00,Meteo,2013-08-10 11:53:00,
2013-08-10 06:58:00,58.0,55.0,30.09,North,0,0.0,0.0,89,0.00,,,0.00,Meteo,2013-08-10 11:58:00,
2013-08-10 07:03:00,58.0,55.0,30.09,North,0,0.0,0.0,89,0.00,,,0.00,Meteo,2013-08-10 12:03:00,
2013-08-10 07:08:00,59.0,55.0,30.09,North,0,0.0,0.0,88,0.00,,,0.00,Meteo,2013-08-10 12:08:00,
2013-08-10 07:13:00,59.0,55.0,30.10,WSW,251,0.0,1.0,88,0.00,,,0.00,Meteo,2013-08-10 12:13:00,
2013-08-10 07:18:00,59.0,55.0,30.10,WSW,250,0.0,1.0,88,0.00,,,0.00,Meteo,2013-08-10 12:18:00,
2013-08-10 07:23:00,59.0,55.0,30.10,North,0,0.0,0.0,87,0.00,,,0.00,Meteo,2013-08-10 12:23:00,
2013-08-10 07:28:00,60.0,56.0,30.10,North,0,0.0,0.0,87,0.00,,,0.00,Meteo,2013-08-10 12:28:00,
2013-08-10 07:33:00,60.0,56.0,30.10,North,0,0.0,0.0,86,0.00,,,0.00,Meteo,2013-08-10 12:33:00,
2013-08-10 07:38:00,60.0,56.0,30.10,West,264,1.0,2.0,86,0.00,,,0.00,Meteo,2013-08-10 12:38:00,
2013-08-10 07:43:00,60.0,55.0,30.10,North,0,0.0,0.0,85,0.00,,,0.00,Meteo,2013-08-10 12:43:00,
2013-08-10 07:48:00,61.0,56.0,30.10,WSW,255,0.0,1.0,84,0.00,,,0.00,Meteo,2013-08-10 12:48:00,
2013-08-10 07:53:00,61.0,56.0,30.10,North,0,0.0,0.0,84,0.00,,,0.00,Meteo,2013-08-10 12:53:00,
2013-08-10 07:58:00,61.0,56.0,30.10,South,180,0.0,1.0,84,0.00,,,0.00,Meteo,2013-08-10 12:58:00,
2013-08-10 08:03:00,61.0,55.0,30.10,South,180,0.0,1.0,82,0.00,,,0.00,Meteo,2013-08-10 13:03:00,
2013-08-10 08:08:00,62.0,56.0,30.10,North,0,0.0,0.0,82,0.00,,,0.00,Meteo,2013-08-10 13:08:00,
2013-08-10 08:13:00,62.0,56.0,30.11,North,0,0.0,0.0,81,0.00,,,0.00,Meteo,2013-08-10 13:13:00,
2013-08-10 08:18:00,62.0,56.0,30.11,North,0,0.0,0.0,81,0.00,,,0.00,Meteo,2013-08-10 13:18:00,
2013-08-10 08:23:00,63.0,57.0,30.10,North,0,0.0,0.0,81,0.00,,,0.00,Meteo,2013-08-10 13:23:00,
2013-08-10 08:28:00,63.0,57.0,30.11,South,181,0.0,1.0,80,0.00,,,0.00,Meteo,2013-08-10 13:28:00,
2013-08-10 08:33:00,63.0,57.0,30.11,North,0,0.0,0.0,80,0.00,,,0.00,Meteo,2013-08-10 13:33:00,
2013-08-10 08:38:00,64.0,57.0,30.10,South,181,0.0,1.0,78,0.00,,,0.00,Meteo,2013-08-10 13:38:00,
2013-08-10 08:43:00,64.0,56.0,30.10,South,182,1.0,2.0,76,0.00,,,0.00,Meteo,2013-08-10 13:43:00,
2013-08-10 08:48:00,64.0,56.0,30.10,South,181,0.0,1.0,75,0.00,,,0.00,Meteo,2013-08-10 13:48:00,
2013-08-10 08:53:00,64.0,56.0,30.10,West,266,1.0,2.0,75,0.00,,,0.00,Meteo,2013-08-10 13:53:00,
2013-08-10 08:58:00,64.0,56.0,30.10,NNW,335,2.0,3.0,74,0.00,,,0.00,Meteo,2013-08-10 13:58:00,
2013-08-10 09:03:00,65.0,57.0,30.10,WNW,295,2.0,3.0,74,0.00,,,0.00,Meteo,2013-08-10 14:03:00,
2013-08-10 09:08:00,65.0,56.0,30.10,NW,309,0.0,1.0,73,0.00,,,0.00,Meteo,2013-08-10 14:08:00,
2013-08-10 09:13:00,65.0,56.0,30.10,NW,310,0.0,1.0,73,0.00,,,0.00,Meteo,2013-08-10 14:13:00,
2013-08-10 09:18:00,65.0,56.0,30.10,NW,311,2.0,3.0,73,0.00,,,0.00,Meteo,2013-08-10 14:18:00,
2013-08-10 09:24:00,65.0,56.0,30.10,NW,314,1.0,2.0,72,0.00,,,0.00,Meteo,2013-08-10 14:24:00,
2013-08-10 09:29:00,66.0,57.0,30.10,West,281,1.0,2.0,72,0.00,,,0.00,Meteo,2013-08-10 14:29:00,
2013-08-10 09:34:00,66.0,56.0,30.10,WNW,302,2.0,3.0,70,0.00,,,0.00,Meteo,2013-08-10 14:34:00,
2013-08-10 09:39:00,66.0,56.0,30.10,NW,312,0.0,1.0,70,0.00,,,0.00,Meteo,2013-08-10 14:39:00,
2013-08-10 09:44:00,67.0,56.0,30.10,North,351,1.0,3.0,68,0.00,,,0.00,Meteo,2013-08-10 14:44:00,
2013-08-10 09:49:00,68.0,56.0,30.10,North,0,0.0,1.0,66,0.00,,,0.00,Meteo,2013-08-10 14:49:00,
2013-08-10 09:54:00,68.0,56.0,30.10,WNW,296,3.0,5.0,65,0.00,,,0.00,Meteo,2013-08-10 14:54:00,
2013-08-10 09:59:00,68.0,55.0,30.10,NW,325,3.0,5.0,64,0.00,,,0.00,Meteo,2013-08-10 14:59:00,
2013-08-10 10:04:00,67.0,54.0,30.10,NW,313,0.0,1.0,64,0.00,,,0.00,Meteo,2013-08-10 15:04:00,
2013-08-10 10:09:00,68.0,55.0,30.10,NW,325,1.0,3.0,64,0.00,,,0.00,Meteo,2013-08-10 15:09:00,
2013-08-10 10:14:00,67.0,54.0,30.10,NNW,342,2.0,4.0,64,0.00,,,0.00,Meteo,2013-08-10 15:14:00,
2013-08-10 10:19:00,67.0,54.0,30.10,NNW,345,1.0,3.0,64,0.00,,,0.00,Meteo,2013-08-10 15:19:00,
2013-08-10 10:24:00,67.0,55.0,30.11,WSW,252,1.0,3.0,65,0.00,,,0.00,Meteo,2013-08-10 15:24:00,
2013-08-10 10:29:00,67.0,54.0,30.11,NNW,339,2.0,4.0,63,0.00,,,0.00,Meteo,2013-08-10 15:29:00,
2013-08-10 10:34:00,68.0,55.0,30.11,North,352,0.0,2.0,64,0.00,,,0.00,Meteo,2013-08-10 15:34:00,
2013-08-10 10:39:00,68.0,55.0,30.11,NNW,337,2.0,5.0,62,0.00,,,0.00,Meteo,2013-08-10 15:39:00,
2013-08-10 10:44:00,68.0,55.0,30.11,WNW,294,4.0,5.0,63,0.00,,,0.00,Meteo,2013-08-10 15:44:00,
2013-08-10 10:49:00,68.0,55.0,30.10,East,99,1.0,2.0,64,0.00,,,0.00,Meteo,2013-08-10 15:49:00,
2013-08-10 10:55:00,69.0,55.0,30.10,NE,38,2.0,3.0,60,0.00,,,0.00,Meteo,2013-08-10 15:55:00,
2013-08-10 11:00:00,70.0,53.0,30.10,North,351,0.0,1.0,55,0.00,,,0.00,Meteo,2013-08-10 16:00:00,
2013-08-10 11:05:00,70.0,54.0,30.10,East,79,1.0,3.0,56,0.00,,,0.00,Meteo,2013-08-10 16:05:00,
2013-08-10 11:10:00,71.0,55.0,30.10,ENE,59,0.0,1.0,58,0.00,,,0.00,Meteo,2013-08-10 16:10:00,
2013-08-10 11:15:00,71.0,55.0,30.10,East,86,1.0,2.0,56,0.00,,,0.00,Meteo,2013-08-10 16:15:00,
2013-08-10 11:20:00,71.0,54.0,30.10,NW,304,2.0,3.0,54,0.00,,,0.00,Meteo,2013-08-10 16:20:00,
2013-08-10 11:25:00,71.0,54.0,30.10,NNW,333,4.0,5.0,54,0.00,,,0.00,Meteo,2013-08-10 16:25:00,
2013-08-10 11:30:00,71.0,54.0,30.10,NNW,332,2.0,5.0,54,0.00,,,0.00,Meteo,2013-08-10 16:30:00,
2013-08-10 11:35:00,71.0,55.0,30.10,NW,309,3.0,5.0,57,0.00,,,0.00,Meteo,2013-08-10 16:35:00,
2013-08-10 11:40:00,70.0,54.0,30.10,NW,323,3.0,5.0,56,0.00,,,0.00,Meteo,2013-08-10 16:40:00,
2013-08-10 11:45:00,69.0,53.0,30.10,WNW,288,2.0,4.0,57,0.00,,,0.00,Meteo,2013-08-10 16:45:00,
2013-08-10 11:51:00,69.0,55.0,30.10,North,0,0.0,0.0,60,0.00,,,0.00,Meteo,2013-08-10 16:51:00,
2013-08-10 11:56:00,69.0,54.0,30.10,NW,320,0.0,1.0,59,0.00,,,0.00,Meteo,2013-08-10 16:56:00,
2013-08-10 12:01:00,69.0,55.0,30.10,NNW,339,3.0,6.0,60,0.00,,,0.00,Meteo,2013-08-10 17:01:00,
2013-08-10 12:06:00,69.0,55.0,30.10,NNW,345,2.0,3.0,60,0.00,,,0.00,Meteo,2013-08-10 17:06:00,
2013-08-10 12:11:00,69.0,55.0,30.10,NW,325,1.0,3.0,60,0.00,,,0.00,Meteo,2013-08-10 17:11:00,
2013-08-10 12:16:00,70.0,56.0,30.10,SW,226,1.0,2.0,61,0.00,,,0.00,Meteo,2013-08-10 17:16:00,
2013-08-10 12:21:00,72.0,56.0,30.10,WSW,243,1.0,3.0,58,0.00,,,0.00,Meteo,2013-08-10 17:21:00,
2013-08-10 12:26:00,72.0,55.0,30.10,NNW,341,0.0,2.0,55,0.00,,,0.00,Meteo,2013-08-10 17:26:00,
2013-08-10 12:31:00,72.0,55.0,30.10,WNW,302,2.0,4.0,55,0.00,,,0.00,Meteo,2013-08-10 17:31:00,
2013-08-10 12:36:00,71.0,55.0,30.10,NW,312,1.0,4.0,58,0.00,,,0.00,Meteo,2013-08-10 17:36:00,
2013-08-10 12:41:00,71.0,55.0,30.10,SSW,205,1.0,2.0,58,0.00,,,0.00,Meteo,2013-08-10 17:41:00,
2013-08-10 12:46:00,71.0,55.0,30.10,SSW,211,1.0,2.0,56,0.00,,,0.00,Meteo,2013-08-10 17:46:00,
2013-08-10 12:51:00,71.0,54.0,30.10,NW,319,1.0,2.0,55,0.00,,,0.00,Meteo,2013-08-10 17:51:00,
2013-08-10 12:56:00,71.0,55.0,30.10,NNW,341,1.0,2.0,56,0.00,,,0.00,Meteo,2013-08-10 17:56:00,
2013-08-10 13:01:00,71.0,55.0,30.10,WSW,245,0.0,1.0,57,0.00,,,0.00,Meteo,2013-08-10 18:01:00,
2013-08-10 13:06:00,72.0,57.0,30.10,South,171,0.0,2.0,60,0.00,,,0.00,Meteo,2013-08-10 18:06:00,
2013-08-10 13:11:00,73.0,56.0,30.10,NNW,341,1.0,4.0,55,0.00,,,0.00,Meteo,2013-08-10 18:11:00,
2013-08-10 13:16:00,73.0,56.0,30.10,North,0,0.0,0.0,55,0.00,,,0.00,Meteo,2013-08-10 18:16:00,
2013-08-10 13:21:00,74.0,58.0,30.10,SSE,158,1.0,2.0,58,0.00,,,0.00,Meteo,2013-08-10 18:21:00,
2013-08-10 13:26:00,74.0,57.0,30.10,North,0,0.0,0.0,55,0.00,,,0.00,Meteo,2013-08-10 18:26:00,
2013-08-10 13:31:00,75.0,57.0,30.10,SSW,192,1.0,2.0,54,0.00,,,0.00,Meteo,2013-08-10 18:31:00,
2013-08-10 13:36:00,75.0,57.0,30.10,WSW,255,2.0,4.0,53,0.00,,,0.00,Meteo,2013-08-10 18:36:00,
2013-08-10 13:41:00,75.0,57.0,30.09,WSW,238,1.0,3.0,53,0.00,,,0.00,Meteo,2013-08-10 18:41:00,
2013-08-10 13:46:00,74.0,55.0,30.09,NNE,15,0.0,2.0,51,0.00,,,0.00,Meteo,2013-08-10 18:46:00,
2013-08-10 13:51:00,73.0,55.0,30.09,West,277,0.0,2.0,54,0.00,,,0.00,Meteo,2013-08-10 18:51:00,
2013-08-10 13:56:00,74.0,56.0,30.09,NE,49,2.0,4.0,53,0.00,,,0.00,Meteo,2013-08-10 18:56:00,
2013-08-10 14:01:00,74.0,55.0,30.09,NNW,327,3.0,6.0,51,0.00,,,0.00,Meteo,2013-08-10 19:01:00,
2013-08-10 14:06:00,74.0,54.0,30.09,NNW,332,2.0,5.0,50,0.00,,,0.00,Meteo,2013-08-10 19:06:00,
2013-08-10 14:11:00,73.0,54.0,30.09,NNW,332,3.0,6.0,51,0.00,,,0.00,Meteo,2013-08-10 19:11:00,
2013-08-10 14:16:00,72.0,54.0,30.09,NNW,337,1.0,3.0,53,0.00,,,0.00,Meteo,2013-08-10 19:16:00,
2013-08-10 14:21:00,72.0,55.0,30.09,NNW,333,1.0,3.0,55,0.00,,,0.00,Meteo,2013-08-10 19:21:00,
2013-08-10 14:26:00,72.0,54.0,30.09,West,265,2.0,4.0,54,0.00,,,0.00,Meteo,2013-08-10 19:26:00,
2013-08-10 14:31:00,73.0,56.0,30.09,East,91,1.0,3.0,56,0.00,,,0.00,Meteo,2013-08-10 19:31:00,
2013-08-10 14:37:00,73.0,55.0,30.09,NNW,330,5.0,7.0,53,0.00,,,0.00,Meteo,2013-08-10 19:37:00,
2013-08-10 14:42:00,73.0,54.0,30.09,NNW,331,2.0,4.0,52,0.00,,,0.00,Meteo,2013-08-10 19:42:00,
2013-08-10 14:47:00,74.0,55.0,30.09,NW,319,3.0,4.0,51,0.00,,,0.00,Meteo,2013-08-10 19:47:00,
2013-08-10 14:52:00,74.0,54.0,30.09,NW,316,2.0,4.0,49,0.00,,,0.00,Meteo,2013-08-10 19:52:00,
2013-08-10 14:57:00,74.0,53.0,30.09,NNW,337,4.0,7.0,48,0.00,,,0.00,Meteo,2013-08-10 19:57:00,
2013-08-10 15:02:00,73.0,53.0,30.09,NNW,329,3.0,6.0,50,0.00,,,0.00,Meteo,2013-08-10 20:02:00,
2013-08-10 15:07:00,73.0,53.0,30.09,NNE,22,1.0,3.0,50,0.00,,,0.00,Meteo,2013-08-10 20:07:00,
2013-08-10 15:12:00,74.0,54.0,30.09,NW,317,3.0,5.0,49,0.00,,,0.00,Meteo,2013-08-10 20:12:00,
2013-08-10 15:17:00,74.0,54.0,30.09,NNW,343,0.0,1.0,50,0.00,,,0.00,Meteo,2013-08-10 20:17:00,
2013-08-10 15:22:00,75.0,55.0,30.09,NW,319,1.0,3.0,49,0.00,,,0.00,Meteo,2013-08-10 20:22:00,
2013-08-10 15:27:00,74.0,52.0,30.09,NNW,337,4.0,6.0,46,0.00,,,0.00,Meteo,2013-08-10 20:27:00,
2013-08-10 15:32:00,74.0,53.0,30.09,WSW,247,1.0,2.0,48,0.00,,,0.00,Meteo,2013-08-10 20:32:00,
2013-08-10 15:37:00,75.0,56.0,30.08,WNW,284,1.0,3.0,51,0.00,,,0.00,Meteo,2013-08-10 20:37:00,
2013-08-10 15:42:00,75.0,55.0,30.08,NNE,20,1.0,2.0,50,0.00,,,0.00,Meteo,2013-08-10 20:42:00,
2013-08-10 15:47:00,76.0,55.0,30.08,SE,145,0.0,1.0,49,0.00,,,0.00,Meteo,2013-08-10 20:47:00,
2013-08-10 15:52:00,77.0,53.0,30.08,NW,325,0.0,2.0,44,0.00,,,0.00,Meteo,2013-08-10 20:52:00,
2013-08-10 15:57:00,77.0,54.0,30.08,WSW,253,1.0,3.0,45,0.00,,,0.00,Meteo,2013-08-10 20:57:00,
2013-08-10 16:02:00,77.0,55.0,30.07,SSW,201,2.0,5.0,46,0.00,,,0.00,Meteo,2013-08-10 21:02:00,
2013-08-10 16:08:00,77.0,53.0,30.07,NW,322,2.0,5.0,44,0.00,,,0.00,Meteo,2013-08-10 21:08:00,
2013-08-10 16:13:00,77.0,55.0,30.07,SSE,152,2.0,3.0,46,0.00,,,0.00,Meteo,2013-08-10 21:13:00,
2013-08-10 16:18:00,78.0,54.0,30.07,SW,226,1.0,4.0,44,0.00,,,0.00,Meteo,2013-08-10 21:18:00,
2013-08-10 16:23:00,78.0,53.0,30.07,SSW,205,1.0,2.0,42,0.00,,,0.00,Meteo,2013-08-10 21:23:00,
2013-08-10 16:28:00,78.0,55.0,30.07,South,189,0.0,1.0,45,0.00,,,0.00,Meteo,2013-08-10 21:28:00,
2013-08-10 16:33:00,78.0,56.0,30.06,South,191,1.0,3.0,46,0.00,,,0.00,Meteo,2013-08-10 21:33:00,
2013-08-10 16:38:00,78.0,56.0,30.06,SSE,158,0.0,1.0,46,0.00,,,0.00,Meteo,2013-08-10 21:38:00,
2013-08-10 16:43:00,78.0,54.0,30.06,West,277,2.0,4.0,43,0.00,,,0.00,Meteo,2013-08-10 21:43:00,
2013-08-10 16:48:00,78.0,53.0,30.06,SSW,211,0.0,1.0,42,0.00,,,0.00,Meteo,2013-08-10 21:48:00,
2013-08-10 16:53:00,77.0,52.0,30.06,WSW,246,0.0,3.0,42,0.00,,,0.00,Meteo,2013-08-10 21:53:00,
2013-08-10 16:58:00,77.0,53.0,30.06,SSW,197,0.0,2.0,44,0.00,,,0.00,Meteo,2013-08-10 21:58:00,
2013-08-10 17:03:00,78.0,53.0,30.06,WSW,250,2.0,5.0,42,0.00,,,0.00,Meteo,2013-08-10 22:03:00,
2013-08-10 17:08:00,78.0,52.0,30.05,NNW,338,3.0,4.0,41,0.00,,,0.00,Meteo,2013-08-10 22:08:00,
2013-08-10 17:13:00,77.0,52.0,30.05,NNW,333,3.0,5.0,41,0.00,,,0.00,Meteo,2013-08-10 22:13:00,
2013-08-10 17:18:00,76.0,50.0,30.05,NNW,328,1.0,4.0,40,0.00,,,0.00,Meteo,2013-08-10 22:18:00,
2013-08-10 17:23:00,77.0,52.0,30.06,SW,219,1.0,3.0,42,0.00,,,0.00,Meteo,2013-08-10 22:23:00,
2013-08-10 17:28:00,77.0,50.0,30.06,North,359,0.0,1.0,39,0.00,,,0.00,Meteo,2013-08-10 22:28:00,
2013-08-10 17:33:00,77.0,51.0,30.06,WNW,294,2.0,3.0,40,0.00,,,0.00,Meteo,2013-08-10 22:33:00,
2013-08-10 17:38:00,77.0,51.0,30.06,NW,315,1.0,2.0,40,0.00,,,0.00,Meteo,2013-08-10 22:38:00,
2013-08-10 17:43:00,77.0,52.0,30.05,WNW,303,0.0,1.0,42,0.00,,,0.00,Meteo,2013-08-10 22:43:00,
2013-08-10 17:48:00,77.0,49.0,30.05,NW,306,1.0,3.0,38,0.00,,,0.00,Meteo,2013-08-10 22:48:00,
2013-08-10 17:53:00,77.0,51.0,30.05,NNW,334,2.0,4.0,40,0.00,,,0.00,Meteo,2013-08-10 22:53:00,
2013-08-10 17:58:00,76.0,50.0,30.05,NNW,327,3.0,5.0,40,0.00,,,0.00,Meteo,2013-08-10 22:58:00,
2013-08-10 18:03:00,76.0,51.0,30.05,WNW,291,2.0,3.0,41,0.00,,,0.00,Meteo,2013-08-10 23:03:00,
2013-08-10 18:08:00,77.0,50.0,30.05,SW,232,1.0,3.0,39,0.00,,,0.00,Meteo,2013-08-10 23:08:00,
2013-08-10 18:14:00,77.0,50.0,30.05,NW,310,1.0,1.0,39,0.00,,,0.00,Meteo,2013-08-10 23:14:00,
2013-08-10 18:19:00,77.0,51.0,30.04,NNW,343,3.0,4.0,40,0.00,,,0.00,Meteo,2013-08-10 23:19:00,
2013-08-10 18:24:00,76.0,51.0,30.05,West,273,3.0,4.0,41,0.00,,,0.00,Meteo,2013-08-10 23:24:00,
2013-08-10 18:29:00,76.0,51.0,30.05,WNW,301,0.0,1.0,41,0.00,,,0.00,Meteo,2013-08-10 23:29:00,
2013-08-10 18:34:00,77.0,52.0,30.05,NW,310,1.0,2.0,41,0.00,,,0.00,Meteo,2013-08-10 23:34:00,
2013-08-10 18:39:00,77.0,51.0,30.05,SW,225,0.0,2.0,40,0.00,,,0.00,Meteo,2013-08-10 23:39:00,
2013-08-10 18:44:00,78.0,51.0,30.04,WSW,253,0.0,1.0,39,0.00,,,0.00,Meteo,2013-08-10 23:44:00,
2013-08-10 18:49:00,77.0,50.0,30.04,WNW,293,0.0,1.0,39,0.00,,,0.00,Meteo,2013-08-10 23:49:00,
2013-08-10 18:54:00,77.0,51.0,30.04,SW,219,1.0,2.0,40,0.00,,,0.00,Meteo,2013-08-10 23:54:00,
2013-08-10 18:57:00,77.0,51.0,30.04,SW,225,0.0,1.0,40,0.00,,,0.00,Meteo,2013-08-10 23:57:00,
2013-08-10 19:02:00,77.0,51.0,30.04,West,279,0.0,1.0,40,0.00,,,0.00,Meteo,2013-08-11 00:02:00,
2013-08-10 19:07:00,76.0,51.0,30.05,SSW,204,1.0,2.0,41,0.00,,,0.00,Meteo,2013-08-11 00:07:00,
2013-08-10 19:12:00,76.0,51.0,30.05,SSW,204,0.0,1.0,42,0.00,,,0.00,Meteo,2013-08-11 00:12:00,
2013-08-10 19:17:00,76.0,52.0,30.04,SSW,204,0.0,1.0,43,0.00,,,0.00,Meteo,2013-08-11 00:17:00,
2013-08-10 19:22:00,75.0,52.0,30.04,North,0,0.0,0.0,44,0.00,,,0.00,Meteo,2013-08-11 00:22:00,
2013-08-10 19:27:00,75.0,52.0,30.04,SSW,212,0.0,1.0,45,0.00,,,0.00,Meteo,2013-08-11 00:27:00,
2013-08-10 19:32:00,75.0,52.0,30.04,North,0,0.0,0.0,45,0.00,,,0.00,Meteo,2013-08-11 00:32:00,
2013-08-10 19:37:00,74.0,52.0,30.04,SW,214,0.0,1.0,46,0.00,,,0.00,Meteo,2013-08-11 00:37:00,
2013-08-10 19:42:00,74.0,53.0,30.04,North,0,0.0,0.0,47,0.00,,,0.00,Meteo,2013-08-11 00:42:00,
2013-08-10 19:47:00,74.0,53.0,30.04,North,0,0.0,0.0,48,0.00,,,0.00,Meteo,2013-08-11 00:47:00,
2013-08-10 19:52:00,74.0,54.0,30.04,North,0,0.0,0.0,49,0.00,,,0.00,Meteo,2013-08-11 00:52:00,
2013-08-10 19:57:00,73.0,54.0,30.03,North,0,0.0,0.0,51,0.00,,,0.00,Meteo,2013-08-11 00:57:00,
2013-08-10 20:02:00,73.0,54.0,30.04,North,0,0.0,0.0,52,0.00,,,0.00,Meteo,2013-08-11 01:02:00,
2013-08-10 20:07:00,73.0,55.0,30.03,North,0,0.0,0.0,54,0.00,,,0.00,Meteo,2013-08-11 01:07:00,
2013-08-10 20:12:00,72.0,55.0,30.04,North,0,0.0,0.0,55,0.00,,,0.00,Meteo,2013-08-11 01:12:00,
2013-08-10 20:17:00,72.0,56.0,30.03,North,0,0.0,0.0,57,0.00,,,0.00,Meteo,2013-08-11 01:17:00,
2013-08-10 20:22:00,71.0,56.0,30.03,North,0,0.0,0.0,59,0.00,,,0.00,Meteo,2013-08-11 01:22:00,
2013-08-10 20:27:00,70.0,55.0,30.04,North,0,0.0,0.0,60,0.00,,,0.00,Meteo,2013-08-11 01:27:00,
2013-08-10 20:33:00,70.0,56.0,30.03,North,0,0.0,0.0,62,0.00,,,0.00,Meteo,2013-08-11 01:33:00,
2013-08-10 20:38:00,69.0,56.0,30.03,North,0,0.0,0.0,63,0.00,,,0.00,Meteo,2013-08-11 01:38:00,
2013-08-10 20:43:00,68.0,55.0,30.03,SW,214,0.0,1.0,64,0.00,,,0.00,Meteo,2013-08-11 01:43:00,
2013-08-10 20:48:00,68.0,56.0,30.03,North,0,0.0,0.0,66,0.00,,,0.00,Meteo,2013-08-11 01:48:00,
2013-08-10 20:53:00,67.0,56.0,30.03,North,0,0.0,0.0,67,0.00,,,0.00,Meteo,2013-08-11 01:53:00,
2013-08-10 20:58:00,67.0,56.0,30.04,North,0,0.0,0.0,68,0.00,,,0.00,Meteo,2013-08-11 01:58:00,
2013-08-10 21:03:00,66.0,56.0,30.04,North,0,0.0,0.0,69,0.00,,,0.00,Meteo,2013-08-11 02:03:00,
2013-08-10 21:08:00,66.0,56.0,30.04,North,0,0.0,0.0,70,0.00,,,0.00,Meteo,2013-08-11 02:08:00,
2013-08-10 21:13:00,66.0,56.0,30.04,North,0,0.0,0.0,71,0.00,,,0.00,Meteo,2013-08-11 02:13:00,
2013-08-10 21:18:00,65.0,56.0,30.04,North,0,0.0,0.0,72,0.00,,,0.00,Meteo,2013-08-11 02:18:00,
2013-08-10 21:24:00,65.0,56.0,30.04,North,0,0.0,0.0,72,0.00,,,0.00,Meteo,2013-08-11 02:24:00,
2013-08-10 21:29:00,64.0,55.0,30.04,North,0,0.0,0.0,73,0.00,,,0.00,Meteo,2013-08-11 02:29:00,
2013-08-10 21:34:00,64.0,55.0,30.04,North,0,0.0,0.0,73,0.00,,,0.00,Meteo,2013-08-11 02:34:00,
2013-08-10 21:39:00,64.0,56.0,30.04,North,0,0.0,0.0,75,0.00,,,0.00,Meteo,2013-08-11 02:39:00,
2013-08-10 21:44:00,63.0,55.0,30.04,North,0,0.0,0.0,75,0.00,,,0.00,Meteo,2013-08-11 02:44:00,
2013-08-10 21:49:00,63.0,55.0,30.04,North,0,0.0,0.0,76,0.00,,,0.00,Meteo,2013-08-11 02:49:00,
2013-08-10 21:54:00,62.0,55.0,30.04,North,0,0.0,0.0,77,0.00,,,0.00,Meteo,2013-08-11 02:54:00,
2013-08-10 22:00:00,62.0,55.0,30.04,North,0,0.0,0.0,78,0.00,,,0.00,Meteo,2013-08-11 03:00:00,
2013-08-10 22:06:00,62.0,55.0,30.04,North,0,0.0,0.0,78,0.00,,,0.00,Meteo,2013-08-11 03:06:00,
2013-08-10 22:12:00,61.0,54.0,30.04,North,0,0.0,0.0,79,0.00,,,0.00,Meteo,2013-08-11 03:12:00,
2013-08-10 22:17:00,61.0,55.0,30.03,North,0,0.0,0.0,80,0.00,,,0.00,Meteo,2013-08-11 03:17:00,
2013-08-10 22:22:00,61.0,55.0,30.03,North,0,0.0,0.0,80,0.00,,,0.00,Meteo,2013-08-11 03:22:00,
2013-08-10 22:27:00,60.0,54.0,30.03,North,0,0.0,0.0,81,0.00,,,0.00,Meteo,2013-08-11 03:27:00,
2013-08-10 22:32:00,60.0,54.0,30.03,North,0,0.0,0.0,82,0.00,,,0.00,Meteo,2013-08-11 03:32:00,
2013-08-10 22:37:00,60.0,55.0,30.03,North,0,0.0,0.0,83,0.00,,,0.00,Meteo,2013-08-11 03:37:00,
2013-08-10 22:42:00,60.0,55.0,30.03,North,0,0.0,0.0,83,0.00,,,0.00,Meteo,2013-08-11 03:42:00,
2013-08-10 22:47:00,59.0,54.0,30.03,North,0,0.0,0.0,84,0.00,,,0.00,Meteo,2013-08-11 03:47:00,
2013-08-10 22:53:00,59.0,54.0,30.03,North,0,0.0,0.0,84,0.00,,,0.00,Meteo,2013-08-11 03:53:00,
2013-08-10 22:59:00,59.0,55.0,30.03,North,0,0.0,0.0,85,0.00,,,0.00,Meteo,2013-08-11 03:59:00,
2013-08-10 23:02:00,59.0,55.0,30.03,North,0,0.0,0.0,86,0.00,,,0.00,Meteo,2013-08-11 04:02:00,
2013-08-10 23:04:00,59.0,55.0,30.03,North,0,0.0,0.0,86,0.00,,,0.00,Meteo,2013-08-11 04:04:00,
2013-08-10 23:05:00,59.0,55.0,30.03,North,0,0.0,0.0,86,0.00,,,0.00,Meteo,2013-08-11 04:05:00,
2013-08-10 23:10:00,58.0,54.0,30.03,North,0,0.0,0.0,86,0.00,,,0.00,Meteo,2013-08-11 04:10:00,
2013-08-10 23:11:00,58.0,54.0,30.03,North,0,0.0,0.0,86,0.00,,,0.00,Meteo,2013-08-11 04:11:00,
2013-08-10 23:16:00,58.0,54.0,30.03,North,0,0.0,0.0,86,0.00,,,0.00,Meteo,2013-08-11 04:16:00,
2013-08-10 23:21:00,58.0,54.0,30.03,North,0,0.0,0.0,86,0.00,,,0.00,Meteo,2013-08-11 04:21:00,
2013-08-10 23:26:00,58.0,54.0,30.04,North,0,0.0,0.0,87,0.00,,,0.00,Meteo,2013-08-11 04:26:00,
2013-08-10 23:31:00,58.0,54.0,30.03,North,0,0.0,0.0,87,0.00,,,0.00,Meteo,2013-08-11 04:31:00,
2013-08-10 23:36:00,58.0,54.0,30.03,North,0,0.0,0.0,87,0.00,,,0.00,Meteo,2013-08-11 04:36:00,
2013-08-10 23:41:00,58.0,54.0,30.03,North,0,0.0,0.0,88,0.00,,,0.00,Meteo,2013-08-11 04:41:00,
2013-08-10 23:47:00,57.0,53.0,30.03,North,0,0.0,0.0,88,0.00,,,0.00,Meteo,2013-08-11 04:47:00,
2013-08-10 23:52:00,57.0,53.0,30.03,North,0,0.0,0.0,88,0.00,,,0.00,Meteo,2013-08-11 04:52:00,
2013-08-10 23:57:00,57.0,53.0,30.03,North,0,0.0,0.0,88,0.00,,,0.00,Meteo,2013-08-11 04:57:00,